Fulton, NY

10:49 PM EDT on June 23, 2017 (GMT -0400)
Oswego County

Weather History for KFZY - November, 2013

Change the Weather History Date:

Wednesday, November 27, 2013

  Actual Average (KSYR) Record (KSYR)
Temperature  
Mean Temperature 30 °F -  
Max Temperature 36 °F 44 °F 68 °F (1988)
Min Temperature 24 °F 31 °F 4 °F (1938)
Degree Days  
Heating Degree Days 35    
Moisture  
Dew Point 28 °F    
Average Humidity 83    
Maximum Humidity 100    
Minimum Humidity 71    
Precipitation  
Precipitation 0.66 in - - ()
Sea Level Pressure  
Sea Level Pressure 29.66 in    
Wind  
Wind Speed 9 mph (NW)    
Max Wind Speed 23 mph    
Max Gust Speed 32 mph    
Visibility 6 miles    
Events Rain , Snow    
Averages and records for this station are not official NWS values.
T = Trace of Precipitation, MM = Missing Value Source: NWS Daily Summary

Daily Weather History Graph

Daily Weather History Graph

Search for Another Location

Airport or City:

Trip Planner

Search our weather history database for the weather conditions in past years. The results will help you decide how hot, cold, wet, or windy it might be!

Date:

Astronomy

Nov. 27, 2013 Rise Set
Actual Time 7:13 AM EST 4:32 PM EST
Civil Twilight 6:42 AM EST 5:04 PM EST
Nautical Twilight 6:06 AM EST 5:39 PM EST
Astronomical Twilight 5:32 AM EST 6:13 PM EST
Moon 1:04 AM EST (11/27) 1:17 PM EST (11/27)
Length of Visible Light 10h 21m
Length of Day
9h 18m
Waning Crescent, 32% of the Moon is Illuminated
Nov 27
Waning Crescent
Dec 2
New
Dec 9
First Quarter
Dec 17
Full
Dec 25
Last Quarter

Hourly Weather History & Observations

Time (EST) Temp. Windchill Dew Point Humidity Pressure Visibility Wind Dir Wind Speed Gust Speed Precip Events Conditions
12:54 AM 34.0 °F 29.8 °F 32.0 °F 92% 29.76 in 4.0 mi ENE 4.6 mph - 0.13 in Rain Rain
1:54 AM 34.0 °F 28.0 °F 32.0 °F 92% 29.71 in 3.0 mi North 6.9 mph - 0.18 in Rain Rain
2:15 AM 33.8 °F 25.8 °F 32.0 °F 93% 29.67 in 3.0 mi NNE 10.4 mph - 0.10 in Rain Rain
2:26 AM 33.8 °F 27.0 °F 32.0 °F 93% 29.66 in 4.0 mi North 8.1 mph - 0.14 in Rain Rain
2:41 AM 33.8 °F 30.8 °F 33.8 °F 100% 29.67 in 3.0 mi South 3.5 mph - 0.19 in Rain Rain
2:54 AM 33.1 °F 30.0 °F 32.0 °F 96% 29.69 in 2.5 mi South 3.5 mph - 0.22 in Snow Light Snow
3:06 AM 33.8 °F - 32.0 °F 93% 29.66 in 1.8 mi Calm Calm - 0.02 in Snow Light Snow
3:23 AM 33.8 °F 30.8 °F 30.2 °F 87% 29.65 in 1.0 mi WNW 3.5 mph - 0.05 in Snow Light Snow
3:39 AM 33.8 °F 29.6 °F 30.2 °F 87% 29.65 in 1.5 mi WNW 4.6 mph - 0.06 in Snow Light Snow
3:54 AM 33.1 °F 27.7 °F 30.9 °F 92% 29.64 in 1.8 mi NNW 5.8 mph - 0.08 in Snow Light Snow
3:58 AM 33.8 °F 28.6 °F 30.2 °F 87% 29.62 in 2.0 mi NW 5.8 mph - 0.00 in Snow Light Snow
4:21 AM 33.8 °F 28.6 °F 30.2 °F 87% 29.61 in 3.0 mi NW 5.8 mph - 0.01 in   Overcast
4:54 AM 33.1 °F 27.7 °F 30.9 °F 92% 29.61 in 4.0 mi NW 5.8 mph - 0.01 in   Overcast
5:54 AM 33.1 °F 26.9 °F 30.9 °F 92% 29.60 in 5.0 mi NW 6.9 mph - 0.01 in   Overcast
6:54 AM 34.0 °F 26.6 °F 32.0 °F 92% 29.61 in 5.0 mi NW 9.2 mph - 0.01 in Rain Light Rain
7:54 AM 34.0 °F 26.6 °F 32.0 °F 92% 29.59 in 5.0 mi NNW 9.2 mph - 0.01 in Snow Light Snow
8:28 AM 35.6 °F 28.0 °F 32.0 °F 87% 29.59 in 7.0 mi NW 10.4 mph - 0.00 in Rain Light Rain
8:54 AM 35.1 °F 26.9 °F 32.0 °F 89% 29.60 in 7.0 mi NW 11.5 mph - 0.01 in Rain Light Rain
9:54 AM 35.1 °F 26.9 °F 32.0 °F 89% 29.61 in 9.0 mi NW 11.5 mph - 0.00 in Rain Light Rain
10:36 AM 35.6 °F 28.6 °F 32.0 °F 87% 29.60 in 10.0 mi NW 9.2 mph - 0.00 in   Overcast
10:54 AM 35.1 °F 26.4 °F 30.9 °F 85% 29.62 in 10.0 mi WNW 12.7 mph - 0.00 in   Overcast
11:54 AM 36.0 °F 29.0 °F 30.9 °F 82% 29.58 in 10.0 mi NW 9.2 mph - 0.00 in   Overcast
12:54 PM 36.0 °F 28.0 °F 30.9 °F 82% 29.58 in 10.0 mi NW 11.5 mph - 0.00 in   Overcast
1:54 PM 36.0 °F 27.5 °F 30.0 °F 79% 29.58 in 10.0 mi NW 12.7 mph 19.6 mph 0.00 in   Overcast
2:54 PM 36.0 °F 27.1 °F 30.0 °F 79% 29.58 in 10.0 mi NW 13.8 mph - N/A   Overcast
3:54 PM 36.0 °F 27.1 °F 28.0 °F 73% 29.60 in 10.0 mi NW 13.8 mph 18.4 mph N/A   Overcast
4:49 PM 35.6 °F 26.6 °F 28.4 °F 75% 29.60 in 9.0 mi WNW 13.8 mph - 0.00 in Snow Light Snow
4:54 PM 35.1 °F 25.2 °F 28.0 °F 76% 29.62 in 9.0 mi WNW 16.1 mph 21.9 mph 0.00 in   Overcast
5:03 PM 35.6 °F 25.5 °F 28.4 °F 75% 29.60 in 10.0 mi WNW 17.3 mph 26.5 mph 0.00 in   Overcast
5:54 PM 33.1 °F 23.4 °F 28.0 °F 82% 29.65 in 6.0 mi West 13.8 mph 27.6 mph 0.00 in Snow Light Snow
6:54 PM 33.1 °F 22.6 °F 25.0 °F 72% 29.68 in 10.0 mi West 16.1 mph 28.8 mph 0.00 in   Overcast
7:54 PM 30.9 °F 19.4 °F 23.0 °F 72% 29.69 in 10.0 mi West 17.3 mph 31.1 mph 0.00 in   Overcast
8:03 PM 30.2 °F 17.4 °F 23.0 °F 75% 29.68 in 10.0 mi West 20.7 mph 29.9 mph 0.00 in   Overcast
8:12 PM 30.2 °F 17.1 °F 23.0 °F 75% 29.68 in 10.0 mi NW 21.9 mph - 0.00 in   Overcast
8:54 PM 30.0 °F 17.2 °F 23.0 °F 75% 29.71 in 9.0 mi WNW 20.7 mph 27.6 mph 0.00 in Snow Light Snow
9:20 PM 28.4 °F 15.4 °F 21.2 °F 74% 29.70 in 7.0 mi WNW 19.6 mph 32.2 mph 0.00 in Snow Light Snow
9:52 PM 28.4 °F 15.1 °F 21.2 °F 74% 29.72 in 7.0 mi WNW 20.7 mph 28.8 mph 0.00 in Snow Light Snow
9:54 PM 28.0 °F 14.3 °F 21.0 °F 75% 29.74 in 7.0 mi WNW 21.9 mph 28.8 mph 0.00 in Snow Light Snow
10:54 PM 26.1 °F 11.3 °F 18.0 °F 71% 29.78 in 10.0 mi WNW 23.0 mph 28.8 mph 0.00 in   Overcast
11:35 PM 24.8 °F 11.9 °F 17.6 °F 74% 29.79 in 2.5 mi WNW 16.1 mph 26.5 mph 0.00 in Snow Light Snow
11:44 PM 24.8 °F 10.7 °F 17.6 °F 74% 29.79 in 4.0 mi NW 19.6 mph - 0.00 in Snow Light Snow
11:54 PM 25.0 °F 12.2 °F 18.0 °F 75% 29.82 in 2.0 mi NW 16.1 mph 29.9 mph 0.00 in Snow Light Snow